User: anonymous   Login
Location: Bailleul
(50.3375°N, 2.8513°E)
Time: 21:01:26
(UTC+00:00)
Language:

Tiros N - Orbit

View from above orbital plane
View from above orbital plane
View from above satellite
View from above satellite

Ground track
Ground track

The orbit data is extracted from the following two-line orbital elements,

1 11060U 78096A   22024.57955688  .00000014  00000-0  27427-4 0  9992
2 11060  98.6587  81.9899 0010484 192.1649 167.9275 14.18346851451217
Epoch (UTC): 24 January 2022 13:54:33
Eccentricity: 0.0010484
inclination: 98.6587°
perigee height: 823 km
apogee height: 838 km
right ascension of ascending node: 81.9899°
argument of perigee: 192.1649°
revolutions per day: 14.18346851
mean anomaly at epoch: 167.9275°
orbit number at epoch: 45121

The dashed part of the orbit path shows where the satellite is in the earth's shadow,  

DLR